Pueblo, CO

6:56 PM MDT on March 24, 2017 (GMT -0600)
Pueblo Memorial

Weather History for KPUB - April, 2013

Change the Weather History Date:

Friday, April 5, 2013

  Actual Average Record
Temperature  
Mean Temperature 58 °F 47 °F  
Max Temperature 79 °F 64 °F 86 °F (1991)
Min Temperature 36 °F 31 °F 17 °F (1983)
Degree Days  
Heating Degree Days 7 18  
Month to date heating degree days 94 91  
Since 1 July heating degree days 5066 5096  
Cooling Degree Days 0 0  
Month to date cooling degree days 0 0  
Year to date cooling degree days 0 0  
Growing Degree Days 8 (Base 50)    
Moisture  
Dew Point 20 °F    
Average Humidity 27    
Maximum Humidity 48    
Minimum Humidity 6    
Precipitation  
Precipitation 0.00 in 0.04 in 2.29 in (1900)
Month to date precipitation 0.01 0.17  
Year to date precipitation 0.91 1.75  
Snow  
Snow 0.00 in 0.10 in 4.20 in (1994)
Month to date snowfall 0.1 0.8  
Since 1 July snowfall 20.5 28.3  
Snow Depth 0.00 in    
Sea Level Pressure  
Sea Level Pressure 29.75 in    
Wind  
Wind Speed 10 mph (West)    
Max Wind Speed 40 mph    
Max Gust Speed 52 mph    
Visibility 10 miles    
Events      
T = Trace of Precipitation, MM = Missing Value Source: NWS Daily Summary

Daily Weather History Graph

Daily Weather History Graph

Search for Another Location

Airport or City:

Trip Planner

Search our weather history database for the weather conditions in past years. The results will help you decide how hot, cold, wet, or windy it might be!

Date:

Astronomy

Apr. 05, 2013 Rise Set
Actual Time 6:36 AM MDT 7:25 PM MDT
Civil Twilight 6:09 AM MDT 7:52 PM MDT
Nautical Twilight 5:38 AM MDT 8:23 PM MDT
Astronomical Twilight 5:05 AM MDT 8:56 PM MDT
Moon 3:41 AM MDT (4/5) 2:55 PM MDT (4/5)
Length of Visible Light 13h 42m
Length of Day
12h 48m
Waning Crescent, 23% of the Moon is Illuminated
Apr 5
Waning Crescent
Apr 10
New
Apr 18
First Quarter
Apr 25
Full
May 2
Last Quarter

Hourly Weather History & Observations

Time (MDT) Temp. Windchill Dew Point Humidity Pressure Visibility Wind Dir Wind Speed Gust Speed Precip Events Conditions
12:53 AM 45.0 °F - 19.9 °F 37% 29.92 in 10.0 mi Calm Calm - N/A   Clear
1:53 AM 39.9 °F - 19.0 °F 43% 29.91 in 10.0 mi Calm Calm - N/A   Clear
2:53 AM 39.9 °F 35.8 °F 19.9 °F 45% 29.89 in 10.0 mi North 5.8 mph - N/A   Clear
3:53 AM 39.0 °F 36.8 °F 18.0 °F 43% 29.89 in 10.0 mi SSW 3.5 mph - N/A   Clear
4:53 AM 36.0 °F 33.3 °F 18.0 °F 48% 29.88 in 10.0 mi WNW 3.5 mph - N/A   Clear
5:53 AM 37.0 °F 33.3 °F 19.0 °F 48% 29.88 in 10.0 mi NNW 4.6 mph - N/A   Clear
6:53 AM 39.0 °F 34.8 °F 21.9 °F 50% 29.87 in 10.0 mi North 5.8 mph - N/A   Clear
7:53 AM 41.0 °F 36.4 °F 21.9 °F 47% 29.88 in 10.0 mi WNW 6.9 mph - N/A   Clear
8:53 AM 45.0 °F 40.6 °F 24.1 °F 44% 29.89 in 10.0 mi SW 8.1 mph - N/A   Clear
9:53 AM 48.9 °F - 23.0 °F 36% 29.86 in 10.0 mi Calm Calm - N/A   Clear
10:53 AM 54.0 °F - 23.0 °F 30% 29.83 in 10.0 mi Calm Calm - N/A   Clear
11:53 AM 63.0 °F - 23.0 °F 22% 29.78 in 10.0 mi South 3.5 mph - N/A   Clear
12:53 PM 64.0 °F - 21.9 °F 20% 29.73 in 10.0 mi ESE 10.4 mph - N/A   Clear
1:53 PM 72.0 °F - 18.0 °F 13% 29.68 in 10.0 mi East 8.1 mph - N/A   Clear
2:53 PM 75.9 °F - 10.9 °F 8% 29.62 in 10.0 mi SSE 5.8 mph - N/A   Clear
3:53 PM 78.1 °F - 6.1 °F 6% 29.58 in 10.0 mi WSW 6.9 mph 17.3 mph N/A   Clear
4:53 PM 75.9 °F - 8.1 °F 7% 29.58 in 10.0 mi West 9.2 mph - N/A   Clear
5:53 PM 75.9 °F - 17.1 °F 11% 29.57 in 10.0 mi West 20.7 mph - N/A   Clear
6:53 PM 72.0 °F - 19.0 °F 13% 29.60 in 1.5 mi West 38.0 mph 50.6 mph N/A   Haze
7:04 PM 71.6 °F - 19.4 °F 14% 29.71 in 4.0 mi SW 10.4 mph 41.4 mph N/A   Haze
7:53 PM 68.0 °F - 21.0 °F 17% 29.61 in 10.0 mi West 15.0 mph - N/A   Clear
8:53 PM 64.9 °F - 23.0 °F 20% 29.64 in 10.0 mi West 16.1 mph - N/A   Clear
9:53 PM 63.0 °F - 24.1 °F 23% 29.67 in 10.0 mi WNW 17.3 mph 25.3 mph N/A   Clear
10:53 PM 61.0 °F - 25.0 °F 25% 29.68 in 10.0 mi WNW 15.0 mph - N/A   Clear
11:53 PM 59.0 °F - 28.0 °F 31% 29.69 in 10.0 mi NW 17.3 mph 26.5 mph N/A   Clear